Temp
-13 -13 -13 -13 -13 -13 -13 -12 -12 -12 -12 -12 -12 -12 -13 -13 -13 -13 -12 -12 -12 -12 -11 -11 -12 -12 -13 -12 -12 -12 -12 -12
-13 -13 -13 -13 -13 -13 -13 -13 -12 -12 -12 -12 -13 -13 -13 -13 -13 -13 -13 -12 -12 -12 -12 -12 -12 -12 -13 -13 -13 -12 -12 -12
-14 -14 -14 -14 -13 -13 -13 -13 -13 -13 -13 -13 -13 -13 -13 -13 -13 -13 -13 -12 -12 -12 -12 -12 -12 -12 -12 -13 -13 -13 -13 -12
-14 -14 -14 -14 -14 -14 -14 -14 -14 -14 -14 -14 -14 -14 -13 -13 -13 -13 -13 -13 -13 -13 -12 -12 -12 -12 -12 -13 -13 -13 -13 -13
-15 -15 -15 -15 -14 -14 -14 -14 -14 -14 -14 -14 -14 -14 -13 -13 -13 -13 -13 -15 -15 -15 -15 -15 -16 -16 -14 -13 -13 -13 -13 -13
-16 -16 -15 -15 -15 -15 -15 -15 -15 -15 -15 -15 -14 -14 -14 -14 -15 -15 -15 -15 -15 -15 -15 -15 -15 -15 -16 -16 -15 -14 -14 -14
-16 -16 -16 -16 -16 -16 -17 -17 -17 -16 -16 -16 -16 -16 -16 -16 -16 -15 -15 -15 -15 -16 -16 -16 -15 -15 -15 -16 -15 -15 -15 -16
-17 -17 -17 -17 -17 -17 -17 -17 -18 -18 -17 -17 -17 -16 -16 -16 -16 -15 -15 -15 -15 -16 -16 -16 -15 -15 -15 -16 -16 -15 -15 -17
-18 -18 -18 -18 -18 -18 -18 -18 -18 -19 -18 -18 -17 -16 -16 -16 -16 -15 -15 -15 -15 -15 -16 -15 -16 -16 -16 -16 -15 -16 -15 -16
-18 -18 -19 -19 -19 -19 -19 -19 -19 -19 -19 -18 -17 -17 -17 -17 -16 -15 -15 -15 -15 -16 -16 -17 -19 -20 -18 -17 -16 -16 -16 -16
-19 -19 -19 -19 -19 -19 -19 -19 -19 -19 -18 -18 -18 -18 -17 -17 -16 -15 -16 -15 -16 -17 -17 -20 -21 -21 -20 -18 -17 -17 -16 -17
-20 -20 -20 -19 -20 -20 -19 -19 -19 -19 -19 -18 -18 -18 -18 -17 -17 -16 -16 -16 -17 -17 -17 -20 -20 -20 -19 -19 -19 -18 -17 -18
-21 -20 -20 -20 -20 -20 -19 -19 -19 -19 -19 -18 -18 -18 -17 -17 -17 -16 -16 -17 -16 -17 -18 -19 -20 -20 -19 -19 -19 -18 -17 -17
-21 -21 -20 -20 -20 -20 -20 -20 -20 -19 -20 -19 -18 -18 -18 -17 -17 -17 -16 -17 -17 -16 -18 -19 -20 -19 -20 -18 -19 -18 -17 -17
-21 -21 -20 -20 -20 -20 -21 -21 -20 -20 -20 -20 -19 -18 -18 -18 -18 -18 -18 -18 -19 -19 -18 -19 -19 -19 -20 -20 -19 -18 -17 -17
-21 -21 -21 -21 -21 -21 -21 -21 -21 -22 -21 -21 -21 -20 -19 -19 -19 -19 -18 -19 -19 -19 -19 -20 -19 -18 -18 -18 -18 -18 -17 -17
-21 -21 -21 -21 -21 -21 -21 -21 -21 -22 -22 -22 -22 -21 -21 -20 -20 -20 -20 -20 -19 -18 -18 -18 -18 -19 -18 -18 -18 -18 -18 -17
-22 -22 -21 -21 -21 -21 -22 -21 -21 -22 -22 -22 -22 -22 -22 -22 -22 -21 -21 -21 -21 -20 -20 -20 -20 -18 -19 -18 -18 -18 -18 -18
-22 -22 -22 -22 -22 -22 -22 -21 -21 -21 -22 -22 -22 -22 -22 -22 -22 -22 -22 -22 -22 -22 -21 -21 -21 -21 -20 -20 -20 -18 -18 -19
Height
5764 5761 5759 5757 5755 5753 5751 5749 5746 5744 5741 5737 5735 5733 5731 5730 5728 5727 5727 5727 5725 5725 5726 5728 5729 5726 5732 5735 5738 5740 5739 5745
5751 5749 5747 5744 5743 5741 5739 5736 5734 5731 5727 5724 5721 5718 5715 5714 5711 5708 5707 5708 5708 5707 5708 5710 5712 5713 5713 5719 5722 5722 5720 5725
5739 5737 5735 5733 5730 5728 5726 5723 5720 5716 5712 5709 5705 5703 5700 5697 5695 5690 5686 5684 5684 5685 5685 5687 5691 5694 5698 5698 5704 5710 5708 5700
5726 5724 5722 5721 5718 5715 5711 5707 5703 5699 5696 5692 5689 5686 5683 5680 5675 5673 5668 5664 5661 5660 5662 5663 5666 5669 5676 5681 5682 5688 5693 5701
5713 5711 5710 5708 5705 5701 5697 5694 5689 5685 5681 5677 5672 5669 5666 5661 5658 5654 5649 5645 5644 5643 5644 5644 5645 5647 5650 5658 5665 5665 5669 5683
5701 5699 5697 5694 5692 5688 5685 5681 5676 5672 5667 5662 5658 5653 5649 5644 5640 5637 5635 5633 5629 5629 5629 5630 5630 5631 5633 5638 5643 5646 5652 5656
5689 5686 5684 5682 5679 5676 5672 5668 5664 5659 5654 5649 5643 5639 5635 5630 5627 5626 5624 5621 5616 5613 5612 5613 5614 5616 5618 5622 5626 5630 5635 5635
5677 5675 5673 5670 5667 5664 5661 5657 5653 5648 5642 5637 5632 5628 5623 5618 5616 5615 5612 5608 5603 5599 5597 5596 5596 5597 5598 5603 5609 5615 5620 5622
5666 5664 5662 5659 5657 5654 5651 5648 5643 5638 5632 5627 5622 5617 5611 5607 5605 5604 5600 5595 5589 5585 5581 5577 5574 5572 5575 5580 5589 5597 5604 5610
5655 5653 5652 5650 5648 5645 5642 5637 5634 5629 5624 5619 5614 5607 5603 5599 5596 5595 5592 5584 5577 5571 5563 5553 5542 5539 5546 5556 5570 5582 5591 5599
5645 5644 5643 5641 5639 5636 5633 5630 5627 5622 5618 5612 5607 5601 5597 5594 5590 5586 5582 5575 5567 5559 5547 5531 5524 5523 5528 5541 5553 5568 5578 5586
5636 5635 5634 5632 5630 5628 5624 5622 5619 5614 5609 5605 5600 5596 5593 5589 5583 5579 5573 5567 5558 5548 5541 5528 5521 5521 5523 5531 5542 5555 5567 5577
5629 5627 5625 5624 5623 5619 5617 5616 5613 5608 5603 5599 5595 5590 5588 5584 5578 5573 5567 5560 5552 5546 5541 5530 5523 5522 5525 5530 5538 5549 5560 5570
5622 5620 5618 5617 5615 5613 5612 5610 5608 5603 5598 5592 5588 5584 5581 5577 5573 5568 5561 5556 5548 5542 5536 5532 5526 5522 5530 5539 5544 5551 5559 5564
5614 5613 5611 5610 5608 5607 5606 5605 5603 5597 5594 5588 5584 5580 5576 5572 5568 5564 5559 5556 5551 5543 5534 5530 5529 5529 5532 5536 5542 5548 5553 5559
5607 5606 5605 5603 5602 5602 5601 5601 5599 5594 5591 5586 5582 5577 5572 5569 5565 5561 5558 5557 5555 5552 5543 5538 5534 5533 5533 5534 5541 5547 5547 5551
5601 5600 5599 5598 5597 5596 5596 5595 5594 5591 5589 5585 5582 5578 5572 5567 5564 5561 5557 5555 5554 5551 5548 5542 5541 5539 5535 5536 5543 5545 5545 5547
5595 5594 5593 5592 5591 5591 5590 5589 5588 5587 5586 5584 5582 5578 5574 5569 5565 5561 5558 5555 5553 5550 5547 5545 5542 5541 5539 5540 5544 5545 5543 5545
5588 5588 5586 5586 5585 5585 5584 5583 5582 5581 5581 5580 5578 5576 5574 5570 5566 5562 5559 5556 5554 5553 5552 5551 5548 5546 5543 5542 5545 5545 5545 5545
Wind_Speed
46 47 47 46 46 48 51 53 56 61 64 65 66 64 61 60 60 60 60 61 64 65 65 66 64 67 61 61 60 59 63 50
51 50 51 51 52 53 54 57 60 62 64 65 64 63 62 60 61 60 60 63 65 68 67 67 69 69 70 65 64 65 58 54
52 52 52 52 53 56 57 59 61 62 61 61 60 59 60 62 62 63 66 69 71 72 74 74 74 74 73 75 69 67 68 56
52 52 53 53 54 56 58 60 62 63 61 58 60 61 63 62 65 67 68 65 63 67 78 81 81 86 85 83 79 75 73 68
51 51 52 53 55 56 58 61 62 61 60 62 62 62 63 68 69 63 57 55 57 57 57 62 61 61 71 76 79 81 81 74
50 51 53 53 53 55 57 58 59 60 61 63 64 64 63 57 47 46 47 51 54 59 63 58 55 52 51 50 56 68 78 82
50 49 49 50 52 53 54 55 56 57 56 55 48 46 48 49 42 40 43 44 47 51 54 55 58 59 59 57 53 56 66 75
45 45 46 47 48 48 50 50 48 46 45 43 40 42 44 45 42 40 42 45 47 50 53 55 55 56 60 63 63 62 57 60
42 43 44 44 44 46 46 44 39 39 38 40 37 39 40 41 34 32 36 45 37 38 41 49 59 62 66 65 63 61 60 56
39 40 41 42 42 41 40 38 35 35 36 36 36 34 33 32 34 35 39 27 32 34 42 51 58 55 66 67 63 60 60 50
36 38 39 39 38 36 35 32 36 33 32 33 34 27 29 26 26 30 26 31 31 36 36 35 25 30 49 62 60 60 58 52
35 35 35 35 34 34 32 32 33 34 31 29 26 20 24 21 14 17 28 22 29 33 29 20 6 12 10 36 54 56 55 49
33 32 31 29 31 30 28 28 30 30 30 24 22 17 20 19 21 17 25 25 23 30 18 13 9 4 4 10 24 36 47 44
31 27 26 29 28 24 25 25 29 28 28 23 21 18 17 16 18 15 18 19 28 22 21 10 4 8 10 15 11 24 40 44
27 26 27 26 21 22 22 24 25 26 30 27 25 25 15 16 17 16 14 15 21 25 19 6 5 12 17 17 12 14 20 21
27 25 26 22 22 22 21 24 22 21 27 23 21 26 21 16 16 18 16 10 10 16 14 13 17 16 13 20 27 19 31 33
25 24 24 24 21 22 21 22 21 16 14 6 6 6 11 14 15 18 19 17 15 11 18 8 10 13 12 18 30 30 11 32
23 22 21 20 22 23 23 21 21 17 15 16 9 12 8 8 11 2 7 13 8 8 8 11 12 3 9 16 30 23 17 10
22 23 23 23 24 24 23 23 21 19 19 16 15 13 10 8 6 8 8 10 11 11 10 10 13 14 11 9 9 10 13 4
Wind_Direction
276 278 279 279 279 280 283 287 290 293 292 288 286 285 284 282 279 275 272 271 271 271 271 273 270 269 263 260 259 258 252 253
278 278 279 280 280 282 284 287 290 289 287 286 285 286 287 283 281 277 274 273 270 271 272 270 267 262 264 258 256 257 254 252
278 278 278 279 281 285 287 289 289 287 285 286 287 286 283 282 281 280 281 280 278 276 274 271 264 259 257 260 255 252 253 255
279 278 279 282 284 286 288 289 290 290 291 290 290 288 284 283 283 282 283 282 278 276 273 269 265 259 254 254 256 252 249 249
280 281 282 284 285 286 287 289 290 290 291 293 291 288 285 287 290 288 279 275 272 271 268 266 264 262 259 255 251 251 251 245
279 281 282 282 283 284 285 287 290 292 292 293 294 294 295 292 280 277 278 279 276 269 267 261 259 256 252 247 250 248 249 247
276 277 278 280 282 284 288 289 291 295 301 301 300 295 290 289 279 277 276 277 275 269 265 263 259 259 255 248 246 246 244 245
273 274 276 279 283 287 290 294 302 303 303 303 298 293 290 284 272 281 277 279 276 268 266 264 257 254 253 249 249 245 248 245
274 276 278 281 286 289 293 302 304 306 305 301 306 295 288 286 280 278 296 294 287 282 280 274 264 256 247 244 242 241 238 241
274 276 279 285 287 292 298 303 305 306 302 306 312 304 300 305 301 280 296 304 291 289 298 286 273 261 237 235 233 234 237 237
277 281 284 287 291 292 297 299 306 306 300 308 305 298 299 299 296 290 291 308 299 315 310 306 280 262 242 228 232 232 233 237
281 282 286 289 288 291 297 303 311 306 310 304 306 291 286 284 289 311 322 310 317 327 317 310 284 308 239 240 232 228 231 235
284 288 286 284 287 293 299 306 308 313 311 302 309 286 277 269 287 314 323 322 330 331 314 314 194 176 74 205 211 223 229 233
286 286 284 286 289 294 297 308 304 316 325 325 314 307 297 291 305 328 334 346 1 355 316 281 84 329 165 179 214 234 235 242
286 283 285 285 286 291 293 301 302 324 326 329 326 323 310 297 313 325 330 342 350 356 2 169 211 199 193 185 192 199 234 216
283 280 280 283 287 283 287 296 298 323 320 320 322 319 323 316 308 306 306 315 315 340 53 87 131 146 174 161 174 183 176 188
279 279 282 282 280 278 284 291 290 309 301 312 347 317 309 314 304 290 289 293 300 320 313 36 46 132 132 207 211 196 203 192
278 280 280 284 278 275 281 283 282 286 288 283 321 336 358 31 43 301 63 69 54 38 17 42 85 95 81 118 177 207 183 195
281 277 281 277 275 273 279 280 278 276 276 265 284 290 287 327 347 9 37 49 57 55 61 48 36 54 35 51 86 184 252 265